千帆星座-83 (QIANFAN-83)

导读

QIANFAN-83 是中国自主研发的北斗卫星导航系统中的一颗重要组网卫星,于2020年成功发射。该卫星主要用于提供高精度定位、导航和授时服务,广泛应用于交通、农业、通信和应急救援等领域。QIANFAN-83 的成功发射进一步提升了北斗系统的全球服务能力,增强了我国在卫星导航领域的自主可控能力,对推动国家信息化建设和国家安全具有重要意义。

基本信息
目录编号:
63169
目录名称:
QIANFAN-83
国际标识:
2025-046L
轨道中心:
EARTH
卫星名称:
千帆星座-83
卫星全名:
千帆星座-83 (QIANFAN-83)
卫星状态:
在轨 (已飞行549 天)
发射日期:
2025-03-11 UTC
国别 :
中国 (CN)
星等 :
--
轨道信息
数据来源 国际轨道数据 AOE轨道数据
星历时间 2026-09-10T23:54:20+0800
11小时前
查看轨道信息
2026-09-10T22:00:00+0800
13小时前
查看轨道信息
半长轴 7406.337km 7406.337km
偏心率 0.0015158 0.001486
轨道倾角 88.966° 88.965°
近地点辐角 40.477° 41.767°
升交点赤经 290.931° 290.939°
平近点角 319.751° 289.386°
近地点 1016.973km 1017.194km
远地点 1039.427km 1039.206km
周期 105.722分钟 105.722分钟
每日圈数 13.620642 13.620643
详细信息
卫星平台:
83
覆盖范围:
全球
运营商:
上海垣信卫星科技有限公司
运营商所在国:
中国
使用方式:
暂无
卫星简介
千帆星座,也被称为“G60星链”计划,是中国版“星链”的重要组成部分,旨在打造一个由1.4万多颗低轨宽频多媒体卫星构成的庞大星座。千帆星座计划由上海垣信卫星科技有限公司负责实施,于2023年启动建设。该项目是我国第二个低轨卫星大星座,旨在通过构建庞大的卫星网络,为全球用户提供高质量的通信和宽带互联网服务。
2D轨道图
3D轨道图
轨道高度分析图
轨道倾角分析图
轨道综合分析图
查看轨道综合分析图
与全量物体交会距离演化趋势
与全量物体交会风险概率演化趋势